Location: Chmeln�
(49.6483°N, 14.9871°E)
Time: 05:44:06
(UTC+00:00)

USA 116 - Pass Details

Date: 18 September 2020
Orbit: 405 x 834 km, 97.9° (Epoch: 18 November)

Event Time Altitude Azimuth Distance (km) Brightness Sun altitude
Rises 18:16:44 0° 9° (N) 2,412 7.1 -12.1°
Reaches altitude 10° 18:18:42 10° 4° (N) 1,575 6.2 -12.4°
Maximum altitude 18:21:57 51° 288° (WNW) 604 4.4 -12.9°
Drops below altitude 10° 18:25:31 10° 212° (SSW) 1,727 6.4 -13.4°
Sets 18:27:45 0° 207° (SSW) 2,676 7.3 -13.8°
